This is the latest recevied weather packets stored in our database for station/object W0VI. If no packets are shown the sender has not sent any weather packets the latest 10 day(s).
| Time | Temp. | Humidity | Pressure | Rain* | Wind** | Luminosity | Snow |
|---|---|---|---|---|---|---|---|
| 1778029831 | 7.22° C | 47% | 1011.7 hPa | 0 mm | - | 7 W/m² | - |
| 1778029531 | 7.22° C | 46% | 1011.6 hPa | 0 mm | - | 10 W/m² | - |
| 1778029227 | 7.22° C | 46% | 1011.3 hPa | 0 mm | - | 13 W/m² | - |
| 1778028924 | 7.22° C | 46% | 1011.7 hPa | 0 mm | - | 13 W/m² | - |
| 1778028619 | 7.78° C | 46% | 1011.5 hPa | 0 mm | - | 18 W/m² | - |
| 1778028317 | 7.78° C | 45% | 1011.5 hPa | 0 mm | - | 26 W/m² | - |
| 1778028014 | 7.78° C | 45% | 1011.5 hPa | 0 mm | - | 30 W/m² | - |
| 1778027710 | 7.78° C | 45% | 1011.3 hPa | 0 mm | - | 29 W/m² | - |
| 1778027406 | 7.78° C | 45% | 1011.3 hPa | 0 mm | - | 27 W/m² | - |
| 1778027102 | 7.78° C | 45% | 1011.1 hPa | 0 mm | - | 32 W/m² | - |
| 1778026798 | 7.78° C | 45% | 1011.1 hPa | 0 mm | - | 34 W/m² | - |
| 1778026494 | 8.33° C | 45% | 1011.3 hPa | 0 mm | - | 43 W/m² | - |
| 1778026192 | 8.33° C | 44% | 1011.1 hPa | 0 mm | - | 66 W/m² | - |
| 1778025889 | 8.89° C | 44% | 1011.1 hPa | 0 mm | - | 58 W/m² | - |
| 1778025586 | 8.89° C | 43% | 1011.2 hPa | 0 mm | - | 66 W/m² | - |
| 1778025284 | 8.89° C | 43% | 1011 hPa | 0 mm | - | 72 W/m² | - |
| 1778024981 | 8.89° C | 42% | 1010.9 hPa | 0 mm | - | 84 W/m² | - |
| 1778024678 | 8.89° C | 42% | 1011 hPa | 0 mm | - | 122 W/m² | - |
| 1778024375 | 8.89° C | 42% | 1011 hPa | 0 mm | - | 82 W/m² | - |
| 1778024073 | 9.44° C | 41% | 1010.7 hPa | 0 mm | - | 95 W/m² | - |
| 1778023770 | 9.44° C | 41% | 1010.5 hPa | 0 mm | - | 105 W/m² | - |
| 1778023468 | 8.89° C | 42% | 1010.8 hPa | 0 mm | - | 120 W/m² | - |
| 1778023164 | 8.89° C | 42% | 1010.6 hPa | 0 mm | - | 84 W/m² | - |
| 1778022862 | 8.89° C | 42% | 1010.6 hPa | 0 mm | - | 82 W/m² | - |
| 1778022560 | 9.44° C | 42% | 1010.6 hPa | 0 mm | - | 89 W/m² | - |
* Rain latest hour (hover to see other rain measurements)
** Current wind speed in m/s (hover to see current wind gust speed)